Weather History for Sumter, SC

Change the Weather History Date:

Thursday, November 8, 2012

  Actual Average Record
Temperature  
Mean Temperature 48 °F -  
Max Temperature 64 °F 67 °F 71 °F (2011)
Min Temperature 33 °F 41 °F 30 °F (2010)
Degree Days  
Heating Degree Days 16    
Moisture  
Dew Point 33 °F    
Average Humidity 69    
Maximum Humidity 100    
Minimum Humidity 24    
Precipitation  
Precipitation 0.00 in - - ()
Sea Level Pressure  
Sea Level Pressure 30.08 in    
Wind  
Wind Speed 3 mph (NW)    
Max Wind Speed 12 mph    
Max Gust Speed 16 mph    
Visibility 8 miles    
Events Fog    
Averages and records for this station are not official NWS values.
T = Trace of Precipitation, MM = Missing Value Source: NWS Daily Summary

Daily Weather History Graph

Daily Weather History Graph

Search for Another Location

Airport:

Trip Planner

Search our weather history database for the weather conditions in past years. The results will help you decide how hot, cold, wet, or windy it might be!

Date:

Astronomy

Nov. 08, 2012 Rise Set
Actual Time 6:47 AM EST 5:22 PM EST
Civil Twilight 6:21 AM EST 5:48 PM EST
Nautical Twilight 5:51 AM EST 6:18 PM EST
Astronomical Twilight 5:22 AM EST 6:47 PM EST
Moon 12:57 AM EST (11/8) 1:48 PM EST (11/8)
Length of Visible Light 11h 26m
Length of Day
10h 34m
Waning Crescent, 33% of the Moon is Illuminated
Nov 8
Waning Crescent
Nov 13
New
Nov 20
First Quarter
Nov 28
Full
Dec 6
Last Quarter

Hourly Weather History & Observations

Time (EST) Temp. Windchill Dew Point Humidity Pressure Visibility Wind Dir Wind Speed Gust Speed Precip Events Conditions
12:15 AM 37.4 °F - 37.4 °F 100% 29.99 in 6.0 mi Calm Calm - N/A   Clear
12:35 AM 35.6 °F - 35.6 °F 100% 29.99 in 5.0 mi Calm Calm - N/A   Clear
12:55 AM 37.4 °F 34.9 °F 37.4 °F 100% 29.99 in 5.0 mi WSW 3.5 mph - N/A   Clear
1:15 AM 35.6 °F - 35.6 °F 100% 29.99 in 5.0 mi Calm Calm - N/A   Clear
1:35 AM 35.6 °F - 35.6 °F 100% 29.99 in 5.0 mi Calm Calm - N/A   Clear
1:55 AM 35.6 °F - 35.6 °F 100% 29.99 in 5.0 mi Calm Calm - N/A   Clear
2:15 AM 35.6 °F - 35.6 °F 100% 29.99 in 4.0 mi Calm Calm - N/A   Clear
2:35 AM 35.6 °F - 35.6 °F 100% 29.99 in 3.0 mi Calm Calm - N/A   Clear
2:55 AM 35.6 °F - 35.6 °F 100% 29.99 in 0.5 mi Calm Calm - N/A Fog Fog
3:15 AM 33.8 °F - 33.8 °F 100% 29.99 in 1.0 mi Calm Calm - N/A   Clear
3:35 AM 35.6 °F - 35.6 °F 100% 30.00 in 5.0 mi Calm Calm - N/A   Clear
3:55 AM 35.6 °F 32.8 °F 35.6 °F 100% 30.00 in 4.0 mi NNW 3.5 mph - N/A   Clear
4:15 AM 37.4 °F 34.9 °F 37.4 °F 100% 30.01 in 4.0 mi NNW 3.5 mph - N/A   Clear
4:35 AM 35.6 °F 32.8 °F 35.6 °F 100% 30.02 in 5.0 mi NNW 3.5 mph - N/A   Clear
4:55 AM 35.6 °F 32.8 °F 35.6 °F 100% 30.02 in 5.0 mi NW 3.5 mph - N/A   Clear
5:15 AM 35.6 °F 31.7 °F 35.6 °F 100% 30.03 in 5.0 mi NNW 4.6 mph - N/A   Clear
5:35 AM 35.6 °F 31.7 °F 35.6 °F 100% 30.03 in 4.0 mi NNW 4.6 mph - N/A   Clear
5:55 AM 35.6 °F 31.7 °F 35.6 °F 100% 30.04 in 4.0 mi NNW 4.6 mph - N/A   Clear
6:15 AM 37.4 °F 34.9 °F 37.4 °F 100% 30.05 in 5.0 mi NW 3.5 mph - N/A   Clear
6:35 AM 37.4 °F 33.8 °F 37.4 °F 100% 30.06 in 5.0 mi NNW 4.6 mph - N/A   Clear
6:55 AM 35.6 °F 32.8 °F 35.6 °F 100% 30.06 in 5.0 mi NNW 3.5 mph - N/A   Clear
7:15 AM 35.6 °F 32.8 °F 35.6 °F 100% 30.08 in 5.0 mi NW 3.5 mph - N/A   Clear
7:55 AM 39.2 °F - 39.2 °F 100% 30.09 in 7.0 mi Calm Calm - N/A   Clear
8:15 AM 41.0 °F - 41.0 °F 100% 30.10 in 9.0 mi Calm Calm - N/A   Clear
8:35 AM 44.6 °F 42.2 °F 39.2 °F 81% 30.11 in 10.0 mi North 4.6 mph - N/A   Clear
8:55 AM 46.4 °F 43.5 °F 41.0 °F 81% 30.11 in 10.0 mi NNW 5.8 mph - N/A   Clear
9:15 AM 50.0 °F - 39.2 °F 66% 30.12 in 10.0 mi North 6.9 mph - N/A   Clear
9:35 AM 51.8 °F - 39.2 °F 62% 30.12 in 10.0 mi NW 5.8 mph - N/A   Clear
9:55 AM 53.6 °F - 39.2 °F 58% 30.12 in 10.0 mi NNW 5.8 mph - N/A   Clear
10:15 AM 55.4 °F - 37.4 °F 51% 30.13 in 10.0 mi NNW 6.9 mph - N/A   Clear
10:35 AM 55.4 °F - 37.4 °F 51% 30.12 in 10.0 mi WNW 8.1 mph - N/A   Clear
10:55 AM 57.2 °F - 37.4 °F 48% 30.12 in 10.0 mi NW 5.8 mph - N/A   Clear
11:15 AM 57.2 °F - 33.8 °F 41% 30.12 in 10.0 mi NW 3.5 mph - N/A   Clear
11:35 AM 59.0 °F - 32.0 °F 36% 30.11 in 10.0 mi North 6.9 mph - N/A   Clear
11:55 AM 59.0 °F - 32.0 °F 36% 30.10 in 10.0 mi WNW 11.5 mph - N/A   Clear
12:15 PM 59.0 °F - 32.0 °F 36% 30.09 in 10.0 mi NW 5.8 mph 16.1 mph N/A   Clear
12:35 PM 60.8 °F - 32.0 °F 34% 30.08 in 10.0 mi West 3.5 mph - N/A   Clear
12:55 PM 60.8 °F - 30.2 °F 31% 30.08 in 10.0 mi WNW 10.4 mph - N/A   Clear
1:15 PM 62.6 °F - 30.2 °F 30% 30.07 in 10.0 mi NW 8.1 mph - N/A   Clear
1:35 PM 62.6 °F - 28.4 °F 27% 30.07 in 10.0 mi North 10.4 mph - N/A   Clear
1:55 PM 62.6 °F - 28.4 °F 27% 30.07 in 10.0 mi NNW 4.6 mph - N/A   Clear
2:15 PM 62.6 °F - 28.4 °F 27% 30.06 in 10.0 mi NW 9.2 mph - N/A   Clear
2:35 PM 64.4 °F - 26.6 °F 24% 30.06 in 10.0 mi NNW 10.4 mph - N/A   Clear
2:55 PM 64.4 °F - 28.4 °F 26% 30.06 in 10.0 mi NW 10.4 mph - N/A   Clear
3:15 PM 64.4 °F - 26.6 °F 24% 30.06 in 10.0 mi WNW 11.5 mph - N/A   Clear
3:35 PM 64.4 °F - 26.6 °F 24% 30.06 in 10.0 mi NW 8.1 mph - N/A   Clear
3:55 PM 64.4 °F - 26.6 °F 24% 30.07 in 10.0 mi NW 9.2 mph - N/A   Clear
4:15 PM 64.4 °F - 26.6 °F 24% 30.07 in 10.0 mi NW 10.4 mph - N/A   Clear
4:35 PM 62.6 °F - 26.6 °F 26% 30.07 in 10.0 mi NW 6.9 mph - N/A   Clear
4:55 PM 60.8 °F - 26.6 °F 27% 30.08 in 10.0 mi NW 4.6 mph - N/A   Clear
5:15 PM 59.0 °F - 28.4 °F 31% 30.08 in 10.0 mi NW 3.5 mph - N/A   Clear
5:35 PM 55.4 °F - 32.0 °F 41% 30.09 in 10.0 mi WNW 3.5 mph - N/A   Clear
5:55 PM 50.0 °F - 32.0 °F 50% 30.10 in 10.0 mi Calm Calm - N/A   Clear
6:15 PM 48.2 °F - 32.0 °F 54% 30.10 in 10.0 mi Calm Calm - N/A   Clear
6:35 PM 44.6 °F - 32.0 °F 61% 30.11 in 10.0 mi Calm Calm - N/A   Clear
6:55 PM 44.6 °F - 32.0 °F 61% 30.11 in 10.0 mi Calm Calm - N/A   Clear
7:15 PM 42.8 °F - 32.0 °F 66% 30.12 in 10.0 mi Calm Calm - N/A   Clear
7:35 PM 41.0 °F - 32.0 °F 70% 30.12 in 10.0 mi Calm Calm - N/A   Clear
7:55 PM 41.0 °F - 32.0 °F 70% 30.12 in 10.0 mi Calm Calm - N/A   Clear
8:15 PM 41.0 °F - 32.0 °F 70% 30.12 in 10.0 mi Calm Calm - N/A   Clear
8:35 PM 41.0 °F - 32.0 °F 70% 30.13 in 10.0 mi Calm Calm - N/A   Clear
8:55 PM 39.2 °F - 32.0 °F 75% 30.13 in 10.0 mi Calm Calm - N/A   Clear
9:15 PM 39.2 °F - 32.0 °F 75% 30.14 in 10.0 mi Calm Calm - N/A   Clear
9:35 PM 37.4 °F - 32.0 °F 81% 30.14 in 10.0 mi Calm Calm - N/A   Clear
9:55 PM 37.4 °F - 32.0 °F 81% 30.14 in 10.0 mi Calm Calm - N/A   Clear
10:15 PM 37.4 °F - 32.0 °F 81% 30.15 in 10.0 mi Calm Calm - N/A   Clear
10:35 PM 35.6 °F - 32.0 °F 87% 30.15 in 10.0 mi Calm Calm - N/A   Clear
10:55 PM 37.4 °F - 32.0 °F 81% 30.15 in 10.0 mi Calm Calm - N/A   Clear
11:15 PM 35.6 °F - 32.0 °F 87% 30.15 in 10.0 mi Calm Calm - N/A   Clear
11:35 PM 35.6 °F - 32.0 °F 87% 30.16 in 10.0 mi Calm Calm - N/A   Clear
11:55 PM 35.6 °F - 32.0 °F 87% 30.16 in 10.0 mi Calm Calm - N/A   Clear